When you browse on this site, cookies collect data to enhance your experience and personalize the content and advertising you see.
Visit our Privacy Policy to learn more. By continuing to use the site, you agree to this use of cookies and data.
  • In Romania
  • List of Countries
  • For 7 days
  • Water Temperature
  • Satellite Maps
  • Weather Map
  • Weather Widgets
  • user-avatar
    Login

    Hourly Weather Canillo

    Today, 22 March, Friday

    Time Temperature Precipitation Wind Pressure Humidity
    00:00 0°C° 0 mm 1 mps 621 mmHg 55%
    01:00 0°C° 0 mm 1 mps 621 mmHg 54%
    02:00 0°C° 0 mm 1 mps 621 mmHg 53%
    03:00 0°C° 0 mm 1 mps 621 mmHg 51%
    04:00 0°C° 0 mm 1 mps 621 mmHg 52%
    05:00 0°C° 0 mm 1 mps 621 mmHg 52%
    06:00 0°C° 0 mm 1 mps 621 mmHg 54%
    07:00 +3°C° 0 mm 1 mps 622 mmHg 50%
    08:00 +6°C° 0 mm 1 mps 623 mmHg 46%
    09:00 +8°C° 0 mm 1 mps 625 mmHg 42%
    10:00 +10°C° 0 mm 1 mps 625 mmHg 41%
    11:00 +11°C° 0 mm 1 mps 625 mmHg 40%
    12:00 +12°C° 0 mm 1 mps 626 mmHg 39%
    13:00 +11°C° 0.1 mm 1 mps 625 mmHg 43%
    14:00 +10°C° 0.1 mm 1 mps 625 mmHg 47%
    15:00 +10°C° 0.1 mm 1 mps 624 mmHg 52%
    16:00 +7°C° 0.2 mm 0 mps 623 mmHg 57%
    17:00 +6°C° 0.2 mm 0 mps 623 mmHg 63%
    18:00 +4°C° 0.2 mm 0 mps 622 mmHg 69%
    19:00 +3°C° 0 mm 0 mps 622 mmHg 71%
    20:00 +3°C° 0 mm 0 mps 622 mmHg 74%
    21:00 +3°C° 0 mm 1 mps 622 mmHg 77%
    22:00 +2°C° 0 mm 1 mps 622 mmHg 77%
    23:00 +2°C° 0 mm 1 mps 622 mmHg 77%

    Tomorrow, 23 March, Saturday

    Time Temperature Precipitation Wind Pressure Humidity
    00:00 +2°C° 0 mm 1 mps 622 mmHg 77%
    01:00 +2°C° 0 mm 1 mps 622 mmHg 76%
    02:00 +2°C° 0 mm 1 mps 621 mmHg 75%
    03:00 +2°C° 0 mm 1 mps 621 mmHg 74%
    04:00 +2°C° 0 mm 1 mps 621 mmHg 73%
    05:00 +2°C° 0 mm 1 mps 621 mmHg 72%
    06:00 +1°C° 0 mm 1 mps 621 mmHg 71%
    07:00 +4°C° 0 mm 1 mps 622 mmHg 61%
    08:00 +7°C° 0 mm 1 mps 623 mmHg 52%
    09:00 +9°C° 0 mm 0 mps 625 mmHg 43%
    10:00 +10°C° 0 mm 0 mps 625 mmHg 40%
    11:00 +12°C° 0 mm 1 mps 625 mmHg 37%
    12:00 +13°C° 0 mm 1 mps 625 mmHg 35%
    13:00 +13°C° 0 mm 1 mps 625 mmHg 36%
    14:00 +13°C° 0 mm 1 mps 624 mmHg 38%
    15:00 +12°C° 0 mm 1 mps 624 mmHg 39%
    16:00 +10°C° 0 mm 1 mps 623 mmHg 48%
    17:00 +9°C° 0 mm 1 mps 622 mmHg 56%
    18:00 +7°C° 0 mm 1 mps 621 mmHg 64%
    19:00 +6°C° 0 mm 1 mps 621 mmHg 68%
    20:00 +5°C° 0 mm 1 mps 621 mmHg 71%
    21:00 +4°C° 0 mm 1 mps 621 mmHg 75%
    22:00 +4°C° 0 mm 1 mps 621 mmHg 73%
    23:00 +4°C° 0 mm 1 mps 621 mmHg 72%

    Day after tomorrow, 24 March, Sunday

    Time Temperature Precipitation Wind Pressure Humidity
    00:00 +4°C° 0 mm 1 mps 621 mmHg 71%
    01:00 +4°C° 0 mm 1 mps 621 mmHg 68%
    02:00 +4°C° 0 mm 1 mps 621 mmHg 66%
    03:00 +3°C° 0 mm 1 mps 620 mmHg 64%
    04:00 +3°C° 0 mm 1 mps 620 mmHg 63%
    05:00 +3°C° 0 mm 1 mps 620 mmHg 62%
    06:00 +3°C° 0 mm 1 mps 620 mmHg 61%
    07:00 +5°C° 0 mm 1 mps 621 mmHg 55%
    08:00 +8°C° 0 mm 1 mps 623 mmHg 49%
    09:00 +10°C° 0 mm 1 mps 624 mmHg 43%
    10:00 +11°C° 0 mm 1 mps 624 mmHg 42%
    11:00 +12°C° 0 mm 1 mps 624 mmHg 41%
    12:00 +13°C° 0 mm 1 mps 625 mmHg 40%
    13:00 +12°C° 0.1 mm 1 mps 624 mmHg 44%
    14:00 +12°C° 0.1 mm 1 mps 623 mmHg 49%
    15:00 +11°C° 0.1 mm 1 mps 622 mmHg 53%
    16:00 +9°C° 0.4 mm 1 mps 622 mmHg 62%
    17:00 +8°C° 0.4 mm 1 mps 621 mmHg 71%
    18:00 +7°C° 0.4 mm 1 mps 621 mmHg 79%
    19:00 +6°C° 0.1 mm 1 mps 621 mmHg 83%
    20:00 +6°C° 0.1 mm 1 mps 621 mmHg 87%
    21:00 +5°C° 0.1 mm 1 mps 621 mmHg 91%
    22:00 +5°C° 0 mm 1 mps 621 mmHg 92%
    23:00 +4°C° 0 mm 1 mps 621 mmHg 93%

    25 March, Monday

    Time Temperature Precipitation Wind Pressure Humidity
    00:00 +4°C° 0 mm 1 mps 620 mmHg 94%
    01:00 +4°C° 0 mm 1 mps 620 mmHg 94%
    02:00 +3°C° 0 mm 1 mps 620 mmHg 94%
    03:00 +3°C° 0 mm 1 mps 620 mmHg 94%
    04:00 +3°C° 0 mm 1 mps 619 mmHg 93%
    05:00 +2°C° 0 mm 1 mps 619 mmHg 92%
    06:00 +2°C° 0 mm 1 mps 619 mmHg 91%
    07:00 +4°C° 0 mm 1 mps 620 mmHg 80%
    08:00 +6°C° 0 mm 1 mps 621 mmHg 69%
    09:00 +8°C° 0 mm 1 mps 622 mmHg 58%
    10:00 +9°C° 0 mm 1 mps 622 mmHg 54%
    11:00 +11°C° 0 mm 1 mps 623 mmHg 50%
    12:00 +12°C° 0 mm 2 mps 623 mmHg 46%
    13:00 +10°C° 0 mm 2 mps 622 mmHg 50%
    14:00 +9°C° 0 mm 2 mps 622 mmHg 54%
    15:00 +9°C° 0 mm 2 mps 621 mmHg 58%
    16:00 +7°C° 0.1 mm 2 mps 620 mmHg 65%
    17:00 +6°C° 0.1 mm 2 mps 620 mmHg 73%
    18:00 +5°C° 0.1 mm 2 mps 619 mmHg 81%
    19:00 +4°C° 0 mm 2 mps 619 mmHg 85%
    20:00 +3°C° 0 mm 2 mps 619 mmHg 88%
    21:00 +2°C° 0 mm 2 mps 619 mmHg 92%
    22:00 +1°C° 0 mm 2 mps 619 mmHg 90%
    23:00 +1°C° 0 mm 2 mps 619 mmHg 87%

    26 March, Tuesday

    Time Temperature Precipitation Wind Pressure Humidity
    00:00 -1°C° 0 mm 2 mps 619 mmHg 85%
    01:00 -1°C° 0 mm 2 mps 618 mmHg 81%
    02:00 -1°C° 0 mm 2 mps 618 mmHg 77%
    03:00 -2°C° 0 mm 2 mps 618 mmHg 73%
    04:00 -2°C° 0 mm 2 mps 618 mmHg 74%
    05:00 -2°C° 0 mm 2 mps 619 mmHg 74%
    06:00 -1°C° 0 mm 2 mps 619 mmHg 75%
    07:00 +2°C° 0 mm 2 mps 620 mmHg 62%
    08:00 +6°C° 0 mm 1 mps 622 mmHg 48%
    09:00 +9°C° 0 mm 1 mps 623 mmHg 35%
    10:00 +11°C° 0 mm 1 mps 624 mmHg 32%
    11:00 +12°C° 0 mm 1 mps 625 mmHg 28%
    12:00 +13°C° 0 mm 1 mps 625 mmHg 25%
    13:00 +13°C° 0 mm 1 mps 625 mmHg 27%
    14:00 +13°C° 0 mm 1 mps 625 mmHg 30%
    15:00 +13°C° 0 mm 1 mps 624 mmHg 33%
    16:00 +10°C° 0 mm 1 mps 624 mmHg 42%
    17:00 +8°C° 0 mm 1 mps 623 mmHg 52%
    18:00 +6°C° 0 mm 1 mps 622 mmHg 62%
    19:00 +5°C° 0 mm 1 mps 623 mmHg 67%
    20:00 +4°C° 0 mm 1 mps 623 mmHg 72%
    21:00 +3°C° 0 mm 1 mps 623 mmHg 78%
    22:00 +3°C° 0 mm 1 mps 623 mmHg 79%
    23:00 +3°C° 0 mm 1 mps 623 mmHg 81%

    27 March, Wednesday

    Time Temperature Precipitation Wind Pressure Humidity
    00:00 +1°C° 0 mm 2 mps 623 mmHg 83%
    01:00 +1°C° 0 mm 2 mps 623 mmHg 83%
    02:00 +2°C° 0 mm 1 mps 622 mmHg 84%
    03:00 +2°C° 0 mm 1 mps 622 mmHg 84%
    04:00 +2°C° 0 mm 1 mps 622 mmHg 82%
    05:00 +1°C° 0 mm 1 mps 622 mmHg 81%
    06:00 +1°C° 0 mm 1 mps 622 mmHg 80%
    07:00 +4°C° 0 mm 1 mps 623 mmHg 67%
    08:00 +8°C° 0 mm 1 mps 625 mmHg 54%
    09:00 +11°C° 0 mm 1 mps 626 mmHg 42%
    10:00 +12°C° 0 mm 1 mps 627 mmHg 38%
    11:00 +13°C° 0 mm 1 mps 627 mmHg 34%
    12:00 +14°C° 0 mm 1 mps 627 mmHg 31%
    13:00 +14°C° 0 mm 1 mps 627 mmHg 32%
    14:00 +14°C° 0 mm 1 mps 626 mmHg 33%
    15:00 +14°C° 0 mm 1 mps 626 mmHg 35%
    16:00 +11°C° 0 mm 1 mps 625 mmHg 43%
    17:00 +9°C° 0 mm 1 mps 624 mmHg 51%
    18:00 +7°C° 0 mm 1 mps 623 mmHg 59%
    19:00 +6°C° 0 mm 1 mps 622 mmHg 63%
    20:00 +4°C° 0 mm 1 mps 622 mmHg 66%
    21:00 +3°C° 0 mm 1 mps 622 mmHg 70%
    22:00 +3°C° 0 mm 1 mps 622 mmHg 69%
    23:00 +3°C° 0 mm 1 mps 622 mmHg 68%
    Show more